DW7721 Weather Reports


time (UTC)temp
C
wind
direction
speed
KPH
gust
KPH
rain 1hr
cm
rain 24hr
cm
rain mn
cm
humidity
%
barometer
mb
20260510131532 20 218 0.0 0.0 0.00 1.04 0.03 92 1011.2
20260510130030 19 219 0.0 0.0 0.00 1.04 0.03 92 1011.0
20260510124534 18 219 0.0 0.0 0.00 1.04 0.03 91 1010.7
20260510123028 18 219 0.0 0.0 0.00 1.04 0.03 91 1010.7
20260510121537 18 219 0.0 0.0 0.00 1.04 0.03 91 1010.5
20260510120048 18 219 0.0 0.0 0.00 1.04 0.03 91 1010.5
20260510114549 18 219 0.0 0.0 0.00 1.04 0.03 91 1010.4
20260510113051 18 219 0.0 0.0 0.00 1.04 0.03 91 1010.5
20260510111606 18 219 0.0 0.0 0.00 1.04 0.03 91 1010.3
20260510110051 18 219 0.0 1.6 0.03 1.04 0.03 91 1010.3
20260510104551 18 89 0.0 0.0 0.03 1.04 0.03 91 1010.4
20260510103051 18 89 0.0 0.0 0.03 1.04 0.03 91 1010.4
20260510101554 18 89 0.0 0.0 0.03 1.04 0.03 90 1010.5
20260510100055 18 89 0.0 0.0 0.00 1.02 0.00 90 1010.7
20260510094555 18 89 0.0 0.0 0.00 1.02 0.00 91 1010.8
20260510093109 18 89 0.0 0.0 0.00 1.02 0.00 91 1010.5
20260510091553 18 89 0.0 0.0 0.00 1.02 0.00 91 1010.3
20260510090109 18 89 0.0 0.0 0.00 1.02 0.00 91 1010.2
20260510084557 18 89 0.0 0.0 0.00 1.02 0.00 90 1010.3
20260510083109 18 89 0.0 0.0 0.00 1.02 0.00 90 1010.2
20260510081607 19 89 0.0 0.0 0.00 1.02 0.00 90 1010.2
20260510080056 19 89 0.0 0.0 0.00 1.02 0.00 90 1010.1
20260510074602 19 89 0.0 0.0 0.00 1.02 0.00 91 1010.2
20260510073017 20 89 0.0 0.0 0.00 1.02 0.00 91 1010.0
20260510071544 20 89 0.0 0.0 0.00 1.02 0.00 91 1010.0
20260510070056 20 89 0.0 0.0 0.00 1.02 0.00 91 1010.1
20260510064607 20 89 0.0 0.0 0.00 1.02 0.00 91 1010.1
20260510063059 20 89 0.0 0.0 0.00 1.02 0.00 91 1010.0
20260510061605 20 89 0.0 0.0 0.00 1.02 0.00 91 1010.0
20260510060009 20 89 0.0 0.0 0.00 1.02 0.00 91 1010.1
20260510054540 20 89 0.0 0.0 0.00 1.02 0.00 90 1010.1
20260510053100 20 89 0.0 0.0 0.00 1.02 0.00 91 1010.1
20260510051504 21 89 0.0 0.0 0.00 1.02 0.00 91 1009.9
20260510050018 21 89 0.0 0.0 0.00 1.02 1.02 91 1009.7
20260510044605 21 89 0.0 0.0 0.00 1.02 1.02 91 1009.6
20260510043046 21 89 0.0 0.0 0.00 1.02 1.02 91 1009.6
20260510041546 21 89 0.0 0.0 0.00 1.02 1.02 91 1009.6
20260510040039 21 89 0.0 0.0 0.00 1.02 1.02 90 1009.4
20260510034540 21 89 0.0 0.0 0.00 1.02 1.02 90 1009.3
20260510033039 21 89 0.0 0.0 0.00 1.02 1.02 90 1009.2
20260510031539 21 89 0.0 0.0 0.00 1.02 1.02 90 1009.0
20260510030041 21 89 0.0 0.0 0.00 1.02 1.02 90 1008.8
20260510024541 21 89 0.0 0.0 0.00 1.02 1.02 90 1008.6
20260510023036 22 89 0.0 0.0 0.00 1.02 1.02 90 1008.5
20260510021535 22 89 0.0 0.0 0.00 1.02 1.02 90 1008.5
20260510020041 22 89 0.0 0.0 0.00 1.02 1.02 89 1008.3
20260510014551 22 89 0.0 0.0 0.00 1.02 1.02 89 1008.1
20260510013049 22 89 0.0 0.0 0.00 1.02 1.02 89 1007.9
20260510011555 22 89 0.0 0.0 0.00 1.02 1.02 89 1007.7
20260510010114 22 89 0.0 0.0 0.00 1.02 1.02 89 1007.6
20260510004550 22 89 0.0 0.0 0.00 1.02 1.02 89 1007.3
20260510003050 22 89 0.0 0.0 0.00 1.02 1.02 88 1007.2
20260510001548 22 89 0.0 0.0 0.10 1.02 1.02 88 1007.0
20260510000052 22 89 0.0 0.0 0.94 1.02 1.02 86 1006.7
20260509234632 22 89 0.0 0.0 0.97 1.02 1.02 84 1006.5
20260509233055 23 84 0.0 3.2 0.97 1.02 1.02 85 1006.5
20260509231552 23 207 0.0 6.4 0.86 0.91 0.91 75 1006.1
20260509230050 29 145 0.0 4.8 0.03 0.08 0.08 63 1006.9
20260509224549 31 140 0.0 4.8 0.00 0.05 0.05 54 1006.7
20260509223050 32 170 0.0 8.0 0.00 0.05 0.05 52 1006.6
20260509221546 32 226 0.0 9.7 0.00 0.05 0.05 52 1006.4
20260509220057 32 329 1.6 6.4 0.00 0.05 0.05 52 1006.5
20260509214508 32 218 1.6 9.7 0.00 0.05 0.05 51 1006.7
20260509213006 32 343 0.0 6.4 0.00 0.05 0.05 50 1006.6
20260509211505 32 200 0.0 11.3 0.00 0.05 0.05 52 1006.8
20260509210004 32 302 1.6 6.4 0.00 0.05 0.05 53 1007.0
20260509204607 32 315 1.6 6.4 0.00 0.05 0.05 53 1007.2
20260509203145 32 168 1.6 12.9 0.00 0.05 0.05 52 1007.5
20260509201515 32 175 0.0 6.4 0.00 0.05 0.05 54 1007.6
20260509200008 31 207 0.0 6.4 0.00 0.05 0.05 56 1007.9
20260509194505 32 212 3.2 11.3 0.00 0.05 0.05 57 1008.2
20260509193136 32 166 0.0 8.0 0.00 0.05 0.05 58 1008.6
20260509191616 31 198 0.0 4.8 0.00 0.05 0.05 57 1008.8
20260509190006 31 156 0.0 11.3 0.00 0.05 0.05 57 1008.9
20260509184519 31 212 0.0 8.0 0.00 0.05 0.05 59 1009.0
20260509183015 30 268 0.0 4.8 0.00 0.05 0.05 60 1009.2
20260509181509 30 122 0.0 6.4 0.00 0.05 0.05 62 1009.4
20260509180009 30 241 0.0 4.8 0.00 0.05 0.05 65 1009.6
20260509174511 30 285 0.0 6.4 0.00 0.05 0.05 66 1009.7
20260509173007 30 211 1.6 4.8 0.00 0.05 0.05 65 1009.9
20260509171503 29 300 0.0 4.8 0.00 0.05 0.05 67 1010.0
20260509170001 28 297 0.0 8.0 0.00 0.05 0.05 71 1010.0
20260509164609 27 58 1.6 8.0 0.00 0.05 0.05 74 1010.2
20260509163048 27 165 1.6 4.8 0.00 0.05 0.05 78 1010.3
20260509161554 26 217 0.0 3.2 0.03 0.05 0.05 80 1010.1
20260509160045 25 124 1.6 8.0 0.03 0.05 0.05 81 1009.9
20260509154542 24 160 1.6 4.8 0.05 0.05 0.05 86 1010.2
20260509153038 23 300 0.0 3.2 0.05 0.05 0.05 91 1010.5
20260509151535 22 205 0.0 0.0 0.03 0.03 0.03 91 1011.0
20260509150052 22 222 0.0 0.0 0.03 0.03 0.03 91 1010.9
20260509144551 22 222 0.0 0.0 0.00 0.00 0.00 91 1011.0
20260509143049 22 220 0.0 0.0 0.00 0.00 0.00 91 1011.0
20260509141547 22 215 0.0 3.2 0.00 0.00 0.00 91 1011.0
20260509140048 22 314 0.0 3.2 0.00 0.00 0.00 91 1010.7
20260509134543 22 31 3.2 8.0 0.00 0.00 0.00 91 1009.8
20260509133041 22 346 0.0 3.2 0.00 0.00 0.00 91 1009.7
20260509131545 22 212 0.0 1.6 0.00 0.00 0.00 91 1009.9